Weather History for Truckee-Tahoe, CA

Change the Weather History Date:

Saturday, June 15, 2013

  Actual Average Record
Temperature  
Mean Temperature 52 °F -  
Max Temperature 73 °F 72 °F 89 °F (2000)
Min Temperature 32 °F 36 °F 26 °F (1976)
Degree Days  
Heating Degree Days 12    
Growing Degree Days 2 (Base 50)    
Moisture  
Dew Point 28 °F    
Average Humidity 51    
Maximum Humidity 87    
Minimum Humidity 15    
Precipitation  
Precipitation 0.00 in - - ()
Sea Level Pressure  
Sea Level Pressure 30.11 in    
Wind  
Wind Speed 3 mph (SW)    
Max Wind Speed 17 mph    
Max Gust Speed 29 mph    
Visibility 10 miles    
Events      
Averages and records for this station are not official NWS values.
T = Trace of Precipitation, MM = Missing Value Source: NWS Daily Summary

Daily Weather History Graph

Daily Weather History Graph

Search for Another Location

Airport:

Trip Planner

Search our weather history database for the weather conditions in past years. The results will help you decide how hot, cold, wet, or windy it might be!

Date:

Astronomy

Jun. 15, 2013 Rise Set
Actual Time 5:33 AM PDT 8:29 PM PDT
Civil Twilight 5:01 AM PDT 9:01 PM PDT
Nautical Twilight 4:20 AM PDT 9:42 PM PDT
Astronomical Twilight 3:33 AM PDT 10:29 PM PDT
Moon 12:11 PM PDT (6/15) 12:09 AM PDT (6/15)
Length of Visible Light 16h 00m
Length of Day
14h 55m
Waxing Crescent, 40% of the Moon is Illuminated
Jun 15
Waxing Crescent
Jun 16
First Quarter
Jun 23
Full
Jun 29
Last Quarter
Jul 8
New

Hourly Weather History & Observations

Time (PDT) Temp. Windchill Dew Point Humidity Pressure Visibility Wind Dir Wind Speed Gust Speed Precip Events Conditions
12:15 AM 44.6 °F - 28.4 °F 53% 30.10 in 10.0 mi Calm Calm - N/A   Clear
12:35 AM 42.8 °F - 28.4 °F 57% 30.10 in 10.0 mi Calm Calm - N/A   Clear
12:55 AM 39.2 °F - 32.0 °F 75% 30.10 in 10.0 mi Calm Calm - N/A   Clear
1:15 AM 39.2 °F - 32.0 °F 75% 30.09 in 10.0 mi Calm Calm - N/A   Clear
1:35 AM 39.2 °F - 32.0 °F 75% 30.09 in 10.0 mi Calm Calm - N/A   Clear
1:55 AM 39.2 °F - 32.0 °F 75% 30.09 in 10.0 mi Calm Calm - N/A   Clear
2:15 AM 39.2 °F - 28.4 °F 65% 30.09 in 10.0 mi Calm Calm - N/A   Clear
2:35 AM 37.4 °F - 32.0 °F 81% 30.09 in 10.0 mi Calm Calm - N/A   Clear
2:55 AM 37.4 °F - 32.0 °F 81% 30.09 in 10.0 mi Calm Calm - N/A   Clear
3:15 AM 35.6 °F - 28.4 °F 75% 30.09 in 10.0 mi Calm Calm - N/A   Clear
3:35 AM 35.6 °F - 30.2 °F 81% 30.09 in 10.0 mi Calm Calm - N/A   Clear
3:55 AM 35.6 °F 32.8 °F 30.2 °F 81% 30.09 in 10.0 mi SSE 3.5 mph - N/A   Clear
4:15 AM 32.0 °F - 28.4 °F 87% 30.09 in 10.0 mi Calm Calm - N/A   Clear
4:35 AM 35.6 °F - 30.2 °F 81% 30.09 in 10.0 mi Calm Calm - N/A   Clear
4:55 AM 35.6 °F - 26.6 °F 70% 30.09 in 10.0 mi Calm Calm - N/A   Clear
5:15 AM 33.8 °F - 28.4 °F 81% 30.10 in 10.0 mi Calm Calm - N/A   Clear
5:35 AM 32.0 °F - 26.6 °F 80% 30.10 in 10.0 mi Calm Calm - N/A   Clear
5:55 AM 32.0 °F - 28.4 °F 87% 30.10 in 10.0 mi Calm Calm - N/A   Clear
6:15 AM 32.0 °F - 28.4 °F 87% 30.11 in 10.0 mi Calm Calm - N/A   Clear
6:35 AM 33.8 °F - 28.4 °F 81% 30.11 in 10.0 mi Calm Calm - N/A   Clear
6:45 AM 37.4 °F - - N/A% 30.11 in 10.0 mi Calm Calm - N/A   Clear
7:50 AM 44.6 °F - 28.4 °F 53% 30.10 in 10.0 mi Calm Calm - N/A   Clear
8:50 AM 51.8 °F - 28.4 °F 41% 30.10 in 10.0 mi Calm Calm - N/A   Clear
9:50 AM 59.0 °F - 32.0 °F 36% 30.10 in 10.0 mi Calm Calm - N/A   Clear
10:50 AM 66.2 °F - 24.8 °F 21% 30.09 in 10.0 mi East 9.2 mph - N/A   Clear
11:45 AM 68.0 °F - 24.8 °F 20% 30.09 in 10.0 mi NW 17.3 mph - N/A   Clear
12:50 PM 71.6 °F - 21.2 °F 15% 30.09 in 10.0 mi West 11.5 mph 28.8 mph N/A   Clear
1:45 PM 71.6 °F - 21.2 °F 15% 30.09 in 10.0 mi West 13.8 mph 19.6 mph N/A   Partly Cloudy
2:45 PM 71.6 °F - 23.0 °F 16% 30.08 in 10.0 mi WNW 17.3 mph - N/A   Partly Cloudy
3:50 PM 73.4 °F - 24.8 °F 16% 30.08 in 10.0 mi West 16.1 mph 21.9 mph N/A   Partly Cloudy
4:50 PM 71.6 °F - 26.6 °F 19% 30.09 in 10.0 mi WSW 15.0 mph 20.7 mph N/A   Partly Cloudy
5:45 PM 69.8 °F - 30.2 °F 23% 30.09 in 10.0 mi West 10.4 mph - N/A   Partly Cloudy
5:55 PM 69.8 °F - 30.2 °F 23% 30.09 in 10.0 mi WSW 13.8 mph 18.4 mph N/A   Clear
6:15 PM 68.0 °F - 30.2 °F 24% 30.10 in 10.0 mi WSW 12.7 mph 19.6 mph N/A   Clear
6:35 PM 68.0 °F - 30.2 °F 24% 30.10 in 10.0 mi West 10.4 mph 16.1 mph N/A   Clear
6:55 PM 66.2 °F - 28.4 °F 24% 30.11 in 10.0 mi West 12.7 mph 19.6 mph N/A   Clear
7:15 PM 64.4 °F - 26.6 °F 24% 30.12 in 10.0 mi West 12.7 mph 18.4 mph N/A   Clear
7:35 PM 64.4 °F - 28.4 °F 26% 30.13 in 10.0 mi West 5.8 mph - N/A   Clear
7:55 PM 62.6 °F - 26.6 °F 26% 30.13 in 10.0 mi West 8.1 mph - N/A   Clear
8:15 PM 60.8 °F - 26.6 °F 27% 30.13 in 10.0 mi West 9.2 mph - N/A   Clear
8:35 PM 57.2 °F - 26.6 °F 31% 30.14 in 10.0 mi West 8.1 mph - N/A   Clear
8:55 PM 53.6 °F - 26.6 °F 35% 30.14 in 10.0 mi WSW 9.2 mph - N/A   Clear
9:15 PM 48.2 °F - 26.6 °F 43% 30.15 in 10.0 mi SE 4.6 mph - N/A   Clear
9:35 PM 48.2 °F - 28.4 °F 46% 30.17 in 10.0 mi SE 4.6 mph - N/A   Clear
9:55 PM 46.4 °F 45.2 °F 28.4 °F 50% 30.17 in 10.0 mi SSE 3.5 mph - N/A   Clear
10:15 PM 46.4 °F 45.2 °F 28.4 °F 50% 30.17 in 10.0 mi SSE 3.5 mph - N/A   Clear
10:35 PM 46.4 °F 43.5 °F 28.4 °F 50% 30.18 in 10.0 mi South 5.8 mph - N/A   Clear
10:55 PM 44.6 °F - 28.4 °F 53% 30.18 in 10.0 mi Calm Calm - N/A   Clear
11:15 PM 44.6 °F 41.4 °F 28.4 °F 53% 30.18 in 10.0 mi SSE 5.8 mph - N/A   Clear
11:35 PM 42.8 °F 41.1 °F 28.4 °F 57% 30.19 in 10.0 mi SSE 3.5 mph - N/A   Clear
11:55 PM 39.2 °F 37.0 °F 26.6 °F 61% 30.19 in 10.0 mi South 3.5 mph - N/A   Clear